TimeEDT,TemperatureF,Dew PointF,Humidity,Sea Level PressureIn,VisibilityMPH,Wind Direction,Wind SpeedMPH,Gust SpeedMPH,PrecipitationIn,Events,Conditions,WindDirDegrees,DateUTC
12:53 AM,57.9,48.9,72,30.05,10.0,Calm,Calm,-,N/A,,Scattered Clouds,0,2012-10-23 04:53:00
2:53 AM,59.0,50.0,72,30.05,10.0,Calm,Calm,-,N/A,,Clear,0,2012-10-23 06:53:00
3:53 AM,57.9,48.9,72,30.03,10.0,ESE,3.5,-,N/A,,Partly Cloudy,120,2012-10-23 07:53:00
4:53 AM,60.1,50.0,69,30.04,10.0,SSW,3.5,-,N/A,,Mostly Cloudy,200,2012-10-23 08:53:00
5:53 AM,62.1,51.1,67,30.05,7.0,Calm,Calm,-,0.01,Rain,Light Rain,0,2012-10-23 09:53:00
6:53 AM,63.0,51.1,65,30.06,10.0,South,3.5,-,0.00,,Overcast,180,2012-10-23 10:53:00
7:53 AM,63.0,48.9,60,30.06,10.0,Calm,Calm,-,N/A,Thunderstorm,Mostly Cloudy,0,2012-10-23 11:53:00
8:25 AM,62.6,50.0,63,30.07,10.0,Calm,Calm,-,N/A,,Mostly Cloudy,0,2012-10-23 12:25:00
8:53 AM,63.0,53.1,70,30.07,10.0,Calm,Calm,-,N/A,,Mostly Cloudy,0,2012-10-23 12:53:00
9:53 AM,64.9,50.0,58,30.09,10.0,Calm,Calm,-,N/A,,Partly Cloudy,0,2012-10-23 13:53:00
10:53 AM,70.0,51.1,51,30.09,10.0,WSW,8.1,-,N/A,,Clear,250,2012-10-23 14:53:00
11:53 AM,75.0,52.0,44,30.09,10.0,WSW,12.7,18.4,N/A,,Clear,250,2012-10-23 15:53:00
12:53 PM,77.0,52.0,42,30.07,10.0,WSW,5.8,-,N/A,,Clear,240,2012-10-23 16:53:00
2:53 PM,82.0,52.0,35,30.02,10.0,SSW,8.1,-,N/A,,Clear,210,2012-10-23 18:53:00
3:53 PM,79.0,51.1,38,30.01,10.0,SSW,6.9,-,N/A,,Clear,210,2012-10-23 19:53:00
4:53 PM,79.0,51.1,38,30.00,10.0,Variable,5.8,-,N/A,,Clear,0,2012-10-23 20:53:00
5:53 PM,77.0,51.1,40,29.99,10.0,South,5.8,-,N/A,,Clear,190,2012-10-23 21:53:00
6:53 PM,73.9,48.9,41,30.00,10.0,SSW,3.5,-,N/A,,Clear,200,2012-10-23 22:53:00
7:53 PM,73.0,50.0,44,30.01,10.0,SSW,3.5,-,0.00,,Mostly Cloudy,200,2012-10-23 23:53:00
8:53 PM,73.0,48.9,42,30.02,10.0,South,3.5,-,0.00,,Overcast,190,2012-10-24 00:53:00
9:53 PM,72.0,48.9,44,30.03,10.0,Calm,Calm,-,N/A,,Overcast,0,2012-10-24 01:53:00
10:53 PM,72.0,48.0,43,30.04,10.0,SSW,3.5,-,N/A,,Overcast,210,2012-10-24 02:53:00
11:53 PM,71.1,48.9,45,30.04,10.0,South,4.6,-,0.00,,Overcast,190,2012-10-24 03:53:00